Time,TemperatureF,DewpointF,PressureIn,WindDirection,WindDirectionDegrees,WindSpeedMPH,WindSpeedGustMPH,Humidity,HourlyPrecipIn,Conditions,Clouds,dailyrainin,SolarRadiationWatts/m^2,SoftwareType,DateUTC
2013-01-12 00:00:00,31.7,12.3,30.04,ENE,69,1.0,4.0,44,0.00,,,0.09,0,LWC V2.00 B727,2013-01-12 07:00:00,
2013-01-12 00:05:00,31.6,12.2,30.04,ENE,69,3.0,4.0,44,0.00,,,0.09,0,LWC V2.00 B727,2013-01-12 07:05:00,
2013-01-12 00:10:00,31.6,12.2,30.04,ENE,69,2.0,3.0,44,0.00,,,0.09,0,LWC V2.00 B727,2013-01-12 07:10:00,
2013-01-12 00:15:00,31.9,11.4,30.04,ENE,69,3.0,3.0,42,0.00,,,0.09,0,LWC V2.00 B727,2013-01-12 07:15:00,
2013-01-12 00:20:00,32.1,11.6,30.04,ENE,69,1.0,3.0,42,0.00,,,0.09,0,LWC V2.00 B727,2013-01-12 07:20:00,
2013-01-12 00:25:00,32.1,11.6,30.04,ENE,69,3.0,3.0,42,0.00,,,0.09,0,LWC V2.00 B727,2013-01-12 07:25:00,
2013-01-12 00:30:00,32.1,11.6,30.04,ENE,69,0.0,3.0,42,0.00,,,0.09,0,LWC V2.00 B727,2013-01-12 07:30:00,
2013-01-12 00:35:00,31.7,11.8,30.04,ENE,69,2.0,3.0,43,0.00,,,0.09,0,LWC V2.00 B727,2013-01-12 07:35:00,
2013-01-12 00:40:00,31.8,11.4,30.04,ENE,69,3.0,4.0,42,0.00,,,0.09,0,LWC V2.00 B727,2013-01-12 07:40:00,
2013-01-12 00:45:00,31.8,11.4,30.03,ENE,69,3.0,3.0,42,0.00,,,0.09,0,LWC V2.00 B727,2013-01-12 07:45:00,
2013-01-12 00:50:00,31.7,11.3,30.03,ENE,69,3.0,4.0,42,0.00,,,0.09,0,LWC V2.00 B727,2013-01-12 07:50:00,
2013-01-12 00:55:00,31.7,11.3,30.03,ENE,69,2.0,4.0,42,0.00,,,0.09,0,LWC V2.00 B727,2013-01-12 07:55:00,
2013-01-12 01:00:00,31.6,11.2,30.03,ENE,69,3.0,3.0,42,0.00,,,0.09,0,LWC V2.00 B727,2013-01-12 08:00:00,
2013-01-12 01:05:00,31.4,11.5,30.03,ENE,69,3.0,3.0,43,0.00,,,0.00,0,LWC V2.00 B727,2013-01-12 08:05:00,
2013-01-12 01:10:00,31.3,11.4,30.03,ENE,69,3.0,4.0,43,0.00,,,0.00,0,LWC V2.00 B727,2013-01-12 08:10:00,
2013-01-12 01:15:00,31.2,11.3,30.03,ENE,69,3.0,3.0,43,0.00,,,0.00,0,LWC V2.00 B727,2013-01-12 08:15:00,
2013-01-12 01:20:00,31.2,11.3,30.03,ENE,69,3.0,4.0,43,0.00,,,0.00,0,LWC V2.00 B727,2013-01-12 08:20:00,
2013-01-12 01:25:00,31.2,11.3,30.03,ENE,69,2.0,3.0,43,0.00,,,0.00,0,LWC V2.00 B727,2013-01-12 08:25:00,
2013-01-12 01:30:00,31.1,11.2,30.03,ENE,69,2.0,4.0,43,0.00,,,0.00,0,LWC V2.00 B727,2013-01-12 08:30:00,
2013-01-12 01:35:00,31.1,11.2,30.03,ENE,69,3.0,4.0,43,0.00,,,0.00,0,LWC V2.00 B727,2013-01-12 08:35:00,
2013-01-12 01:40:00,31.0,11.2,30.03,ENE,69,3.0,4.0,43,0.00,,,0.00,0,LWC V2.00 B727,2013-01-12 08:40:00,
2013-01-12 01:45:00,30.8,11.0,30.03,ENE,69,3.0,4.0,43,0.00,,,0.00,0,LWC V2.00 B727,2013-01-12 08:45:00,
2013-01-12 01:50:00,30.7,10.9,30.03,ENE,69,2.0,4.0,43,0.00,,,0.00,0,LWC V2.00 B727,2013-01-12 08:50:00,
2013-01-12 01:55:00,30.7,10.9,30.03,ENE,69,4.0,4.0,43,0.00,,,0.00,0,LWC V2.00 B727,2013-01-12 08:55:00,
2013-01-12 02:00:00,30.7,10.4,30.03,ENE,69,3.0,3.0,42,0.00,,,0.00,0,LWC V2.00 B727,2013-01-12 09:00:00,
2013-01-12 02:05:00,31.0,10.6,30.03,ENE,69,3.0,3.0,42,0.00,,,0.00,0,LWC V2.00 B727,2013-01-12 09:05:00,
2013-01-12 02:10:00,31.1,10.2,30.03,ENE,69,2.0,4.0,41,0.00,,,0.00,0,LWC V2.00 B727,2013-01-12 09:10:00,
2013-01-12 02:15:00,31.0,10.6,30.03,ENE,69,2.0,4.0,42,0.00,,,0.00,0,LWC V2.00 B727,2013-01-12 09:15:00,
2013-01-12 02:20:00,30.9,10.0,30.03,ENE,69,3.0,4.0,41,0.00,,,0.00,0,LWC V2.00 B727,2013-01-12 09:20:00,
2013-01-12 02:25:00,31.0,10.1,30.03,ENE,69,1.0,3.0,41,0.00,,,0.00,0,LWC V2.00 B727,2013-01-12 09:25:00,
2013-01-12 02:30:00,30.6,10.3,30.03,ENE,69,2.0,2.0,42,0.00,,,0.00,0,LWC V2.00 B727,2013-01-12 09:30:00,
2013-01-12 02:35:00,30.1,10.9,30.03,ENE,69,1.0,2.0,44,0.00,,,0.00,0,LWC V2.00 B727,2013-01-12 09:35:00,
2013-01-12 02:40:00,30.4,10.6,30.03,ENE,69,1.0,1.0,43,0.00,,,0.00,0,LWC V2.00 B727,2013-01-12 09:40:00,
2013-01-12 02:45:00,29.9,10.7,30.03,ENE,69,0.0,1.0,44,0.00,,,0.00,0,LWC V2.00 B727,2013-01-12 09:45:00,
2013-01-12 02:50:00,29.6,10.9,30.03,ENE,69,1.0,2.0,45,0.00,,,0.00,0,LWC V2.00 B727,2013-01-12 09:50:00,
2013-01-12 02:55:00,29.4,10.7,30.02,ENE,69,0.0,1.0,45,0.00,,,0.00,0,LWC V2.00 B727,2013-01-12 09:55:00,
2013-01-12 03:00:00,29.3,10.6,30.02,ENE,69,0.0,0.0,45,0.00,,,0.00,0,LWC V2.00 B727,2013-01-12 10:00:00,
2013-01-12 03:05:00,29.1,10.9,30.02,ENE,69,0.0,0.0,46,0.00,,,0.00,0,LWC V2.00 B727,2013-01-12 10:05:00,
2013-01-12 03:10:00,29.6,10.9,30.03,ENE,69,0.0,1.0,45,0.00,,,0.00,0,LWC V2.00 B727,2013-01-12 10:10:00,
2013-01-12 03:15:00,29.7,10.5,30.03,ENE,69,0.0,2.0,44,0.00,,,0.00,0,LWC V2.00 B727,2013-01-12 10:15:00,
2013-01-12 03:20:00,29.9,10.7,30.03,ENE,69,0.0,0.0,44,0.00,,,0.00,0,LWC V2.00 B727,2013-01-12 10:20:00,
2013-01-12 03:25:00,29.8,11.6,30.03,ENE,69,0.0,1.0,46,0.00,,,0.00,0,LWC V2.00 B727,2013-01-12 10:25:00,
2013-01-12 03:30:00,29.7,12.0,30.02,ENE,69,0.0,1.0,47,0.00,,,0.00,0,LWC V2.00 B727,2013-01-12 10:30:00,
2013-01-12 03:35:00,29.4,11.7,30.03,ENE,69,1.0,1.0,47,0.00,,,0.00,0,LWC V2.00 B727,2013-01-12 10:35:00,
2013-01-12 03:40:00,29.5,11.3,30.02,ENE,69,2.0,4.0,46,0.00,,,0.00,0,LWC V2.00 B727,2013-01-12 10:40:00,
2013-01-12 03:45:00,29.2,12.0,30.03,ENE,69,0.0,1.0,48,0.00,,,0.00,0,LWC V2.00 B727,2013-01-12 10:45:00,
2013-01-12 03:50:00,28.5,11.3,30.02,ENE,69,1.0,1.0,48,0.00,,,0.00,0,LWC V2.00 B727,2013-01-12 10:50:00,
2013-01-12 03:55:00,28.7,11.5,30.02,ENE,69,2.0,4.0,48,0.00,,,0.00,0,LWC V2.00 B727,2013-01-12 10:55:00,
2013-01-12 04:00:00,29.9,12.1,30.02,ENE,69,1.0,3.0,47,0.00,,,0.00,0,LWC V2.00 B727,2013-01-12 11:00:00,
2013-01-12 04:05:00,30.1,11.8,30.02,ENE,69,3.0,3.0,46,0.00,,,0.00,0,LWC V2.00 B727,2013-01-12 11:05:00,
2013-01-12 04:10:00,30.0,11.8,30.02,ENE,69,1.0,2.0,46,0.00,,,0.00,0,LWC V2.00 B727,2013-01-12 11:10:00,
2013-01-12 04:15:00,29.8,12.1,30.02,ENE,69,0.0,0.0,47,0.00,,,0.00,0,LWC V2.00 B727,2013-01-12 11:15:00,
2013-01-12 04:20:00,29.2,11.5,30.02,ENE,69,0.0,0.0,47,0.00,,,0.00,0,LWC V2.00 B727,2013-01-12 11:20:00,
2013-01-12 04:25:00,29.3,12.1,30.02,ENE,69,0.0,1.0,48,0.00,,,0.00,0,LWC V2.00 B727,2013-01-12 11:25:00,
2013-01-12 04:30:00,29.6,11.9,30.02,ENE,69,2.0,2.0,47,0.00,,,0.00,0,LWC V2.00 B727,2013-01-12 11:30:00,
2013-01-12 04:35:00,29.9,12.1,30.02,ENE,69,0.0,2.0,47,0.00,,,0.00,0,LWC V2.00 B727,2013-01-12 11:35:00,
2013-01-12 04:40:00,29.8,12.1,30.02,ENE,69,0.0,0.0,47,0.00,,,0.00,0,LWC V2.00 B727,2013-01-12 11:40:00,
2013-01-12 04:45:00,29.1,11.9,30.02,ENE,69,0.0,1.0,48,0.00,,,0.00,0,LWC V2.00 B727,2013-01-12 11:45:00,
2013-01-12 04:50:00,29.5,11.8,30.02,ENE,69,0.0,0.0,47,0.00,,,0.00,0,LWC V2.00 B727,2013-01-12 11:50:00,
2013-01-12 04:55:00,30.3,11.5,30.02,ENE,69,1.0,2.0,45,0.00,,,0.00,0,LWC V2.00 B727,2013-01-12 11:55:00,
2013-01-12 05:00:00,29.8,12.1,30.02,ENE,69,0.0,1.0,47,0.00,,,0.00,0,LWC V2.00 B727,2013-01-12 12:00:00,
2013-01-12 05:05:00,28.6,11.9,30.02,ENE,69,0.0,1.0,49,0.00,,,0.00,0,LWC V2.00 B727,2013-01-12 12:05:00,
2013-01-12 05:10:00,27.7,12.0,30.02,ENE,69,0.0,0.0,51,0.00,,,0.00,0,LWC V2.00 B727,2013-01-12 12:10:00,
2013-01-12 05:15:00,27.8,12.1,30.02,ENE,69,0.0,1.0,51,0.00,,,0.00,0,LWC V2.00 B727,2013-01-12 12:15:00,
2013-01-12 05:20:00,28.3,12.1,30.02,ENE,69,0.0,0.0,50,0.00,,,0.00,0,LWC V2.00 B727,2013-01-12 12:20:00,
2013-01-12 05:25:00,28.5,12.3,30.03,ENE,69,1.0,1.0,50,0.00,,,0.00,0,LWC V2.00 B727,2013-01-12 12:25:00,
2013-01-12 05:30:00,28.7,12.4,30.03,ENE,69,0.0,0.0,50,0.00,,,0.00,0,LWC V2.00 B727,2013-01-12 12:30:00,
2013-01-12 05:35:00,29.2,12.4,30.03,ENE,69,0.0,0.0,49,0.00,,,0.00,0,LWC V2.00 B727,2013-01-12 12:35:00,
2013-01-12 05:40:00,30.2,11.9,30.03,ENE,69,0.0,0.0,46,0.00,,,0.00,0,LWC V2.00 B727,2013-01-12 12:40:00,
2013-01-12 05:45:00,30.3,11.5,30.04,ENE,69,0.0,1.0,45,0.00,,,0.00,0,LWC V2.00 B727,2013-01-12 12:45:00,
2013-01-12 05:50:00,30.2,11.4,30.03,ENE,69,0.0,0.0,45,0.00,,,0.00,0,LWC V2.00 B727,2013-01-12 12:50:00,
2013-01-12 05:55:00,29.9,11.7,30.04,ENE,69,1.0,1.0,46,0.00,,,0.00,0,LWC V2.00 B727,2013-01-12 12:55:00,
2013-01-12 06:00:00,29.9,12.1,30.04,ENE,69,1.0,1.0,47,0.00,,,0.00,0,LWC V2.00 B727,2013-01-12 13:00:00,
2013-01-12 06:05:00,30.5,12.2,30.04,ENE,69,1.0,2.0,46,0.00,,,0.00,0,LWC V2.00 B727,2013-01-12 13:05:00,
2013-01-12 06:10:00,30.4,12.1,30.04,ENE,69,0.0,0.0,46,0.00,,,0.00,0,LWC V2.00 B727,2013-01-12 13:10:00,
2013-01-12 06:15:00,29.7,12.0,30.04,ENE,69,0.0,0.0,47,0.00,,,0.00,0,LWC V2.00 B727,2013-01-12 13:15:00,
2013-01-12 06:20:00,29.9,11.7,30.04,ENE,69,1.0,2.0,46,0.00,,,0.00,0,LWC V2.00 B727,2013-01-12 13:20:00,
2013-01-12 06:25:00,30.1,11.8,30.05,ENE,69,2.0,3.0,46,0.00,,,0.00,0,LWC V2.00 B727,2013-01-12 13:25:00,
2013-01-12 06:30:00,29.9,12.1,30.05,ENE,69,1.0,2.0,47,0.00,,,0.00,0,LWC V2.00 B727,2013-01-12 13:30:00,
2013-01-12 06:35:00,29.5,12.7,30.05,ENE,69,2.0,2.0,49,0.00,,,0.00,0,LWC V2.00 B727,2013-01-12 13:35:00,
2013-01-12 06:40:00,29.2,12.9,30.06,ENE,69,2.0,2.0,50,0.00,,,0.00,0,LWC V2.00 B727,2013-01-12 13:40:00,
2013-01-12 06:46:00,28.9,13.1,30.06,ENE,69,1.0,2.0,51,0.00,,,0.00,0,LWC V2.00 B727,2013-01-12 13:46:00,
2013-01-12 06:50:00,29.0,12.7,30.06,ENE,69,2.0,2.0,50,0.00,,,0.00,0,LWC V2.00 B727,2013-01-12 13:50:00,
2013-01-12 06:55:00,28.8,13.0,30.06,ENE,69,0.0,1.0,51,0.00,,,0.00,0,LWC V2.00 B727,2013-01-12 13:55:00,
2013-01-12 07:00:00,28.8,13.0,30.06,ENE,69,2.0,3.0,51,0.00,,,0.00,0,LWC V2.00 B727,2013-01-12 14:00:00,
2013-01-12 07:06:00,29.2,13.4,30.06,ENE,69,1.0,3.0,51,0.00,,,0.00,0,LWC V2.00 B727,2013-01-12 14:06:00,
2013-01-12 07:11:00,29.1,12.8,30.06,ENE,69,1.0,2.0,50,0.00,,,0.00,0,LWC V2.00 B727,2013-01-12 14:11:00,
2013-01-12 07:16:00,29.2,12.9,30.06,ENE,69,1.0,3.0,50,0.00,,,0.00,0,LWC V2.00 B727,2013-01-12 14:16:00,
2013-01-12 07:21:00,29.1,12.8,30.07,ENE,69,1.0,2.0,50,0.00,,,0.00,0,LWC V2.00 B727,2013-01-12 14:21:00,
2013-01-12 07:26:00,29.2,12.9,30.07,ENE,69,1.0,2.0,50,0.00,,,0.00,5,LWC V2.00 B727,2013-01-12 14:26:00,
2013-01-12 07:31:00,29.1,13.3,30.07,ENE,69,0.0,2.0,51,0.00,,,0.00,9,LWC V2.00 B727,2013-01-12 14:31:00,
2013-01-12 07:36:00,28.6,12.8,30.07,ENE,69,0.0,0.0,51,0.00,,,0.00,14,LWC V2.00 B727,2013-01-12 14:36:00,
2013-01-12 07:41:00,28.2,12.9,30.08,ENE,69,0.0,0.0,52,0.00,,,0.00,19,LWC V2.00 B727,2013-01-12 14:41:00,
2013-01-12 07:46:00,28.5,13.1,30.08,ENE,69,0.0,1.0,52,0.00,,,0.00,23,LWC V2.00 B727,2013-01-12 14:46:00,
2013-01-12 07:51:00,29.0,13.2,30.08,ENE,69,2.0,2.0,51,0.00,,,0.00,26,LWC V2.00 B727,2013-01-12 14:51:00,
2013-01-12 07:56:00,29.6,12.8,30.08,ENE,69,1.0,2.0,49,0.00,,,0.00,28,LWC V2.00 B727,2013-01-12 14:56:00,
2013-01-12 08:01:00,30.0,13.2,30.08,ENE,69,0.0,0.0,49,0.00,,,0.00,32,LWC V2.00 B727,2013-01-12 15:01:00,
2013-01-12 08:06:00,29.8,13.0,30.08,ENE,69,0.0,1.0,49,0.00,,,0.00,33,LWC V2.00 B727,2013-01-12 15:06:00,
2013-01-12 08:11:00,30.1,12.8,30.09,ENE,69,1.0,3.0,48,0.00,,,0.00,32,LWC V2.00 B727,2013-01-12 15:11:00,
2013-01-12 08:16:00,30.3,12.5,30.09,ENE,69,1.0,1.0,47,0.00,,,0.00,33,LWC V2.00 B727,2013-01-12 15:16:00,
2013-01-12 08:21:00,30.3,13.0,30.09,ENE,69,0.0,0.0,48,0.00,,,0.00,120,LWC V2.00 B727,2013-01-12 15:21:00,
2013-01-12 08:26:00,31.0,13.2,30.10,ENE,69,0.0,0.0,47,0.00,,,0.00,160,LWC V2.00 B727,2013-01-12 15:26:00,
2013-01-12 08:31:00,31.9,13.5,30.10,ENE,69,0.0,0.0,46,0.00,,,0.00,58,LWC V2.00 B727,2013-01-12 15:31:00,
2013-01-12 08:36:00,33.0,13.0,30.10,ENE,69,0.0,0.0,43,0.00,,,0.00,135,LWC V2.00 B727,2013-01-12 15:36:00,
2013-01-12 08:41:00,33.0,13.0,30.10,ENE,69,0.0,0.0,43,0.00,,,0.00,199,LWC V2.00 B727,2013-01-12 15:41:00,
2013-01-12 08:46:00,33.8,13.2,30.11,ENE,69,0.0,0.0,42,0.00,,,0.00,95,LWC V2.00 B727,2013-01-12 15:46:00,
2013-01-12 08:51:00,33.8,12.6,30.11,ENE,69,0.0,0.0,41,0.00,,,0.00,227,LWC V2.00 B727,2013-01-12 15:51:00,
2013-01-12 08:56:00,34.4,13.2,30.11,ENE,69,0.0,0.0,41,0.00,,,0.00,206,LWC V2.00 B727,2013-01-12 15:56:00,
2013-01-12 09:01:00,34.2,12.4,30.11,ENE,69,0.0,0.0,40,0.00,,,0.00,287,LWC V2.00 B727,2013-01-12 16:01:00,
2013-01-12 09:06:00,34.2,13.0,30.11,ENE,69,0.0,0.0,41,0.00,,,0.00,95,LWC V2.00 B727,2013-01-12 16:06:00,
2013-01-12 09:11:00,34.3,13.1,30.12,ENE,69,0.0,0.0,41,0.00,,,0.00,318,LWC V2.00 B727,2013-01-12 16:11:00,
2013-01-12 09:16:00,34.4,14.8,30.12,ENE,69,0.0,0.0,44,0.00,,,0.00,341,LWC V2.00 B727,2013-01-12 16:16:00,
2013-01-12 09:21:00,34.8,14.6,30.12,ENE,69,0.0,0.0,43,0.00,,,0.00,352,LWC V2.00 B727,2013-01-12 16:21:00,
2013-01-12 09:26:00,35.3,14.5,30.12,ENE,69,0.0,0.0,42,0.00,,,0.00,387,LWC V2.00 B727,2013-01-12 16:26:00,
2013-01-12 09:31:00,36.0,15.7,30.12,ENE,69,0.0,0.0,43,0.00,,,0.00,410,LWC V2.00 B727,2013-01-12 16:31:00,
2013-01-12 09:36:00,35.6,14.8,30.12,ENE,69,0.0,1.0,42,0.00,,,0.00,114,LWC V2.00 B727,2013-01-12 16:36:00,
2013-01-12 09:41:00,35.5,14.2,30.13,ENE,69,0.0,0.0,41,0.00,,,0.00,410,LWC V2.00 B727,2013-01-12 16:41:00,
2013-01-12 09:46:00,36.0,11.7,30.12,ENE,69,0.0,0.0,36,0.00,,,0.00,374,LWC V2.00 B727,2013-01-12 16:46:00,
2013-01-12 09:51:00,36.4,13.2,30.13,ENE,69,0.0,0.0,38,0.00,,,0.00,457,LWC V2.00 B727,2013-01-12 16:51:00,
2013-01-12 09:56:00,37.0,14.4,30.12,ENE,69,0.0,1.0,39,0.00,,,0.00,455,LWC V2.00 B727,2013-01-12 16:56:00,
2013-01-12 10:01:00,37.5,16.0,30.12,ENE,69,0.0,1.0,41,0.00,,,0.00,461,LWC V2.00 B727,2013-01-12 17:01:00,
2013-01-12 10:06:00,37.8,14.5,30.12,ENE,69,2.0,2.0,38,0.00,,,0.00,483,LWC V2.00 B727,2013-01-12 17:06:00,
2013-01-12 10:11:00,38.0,14.7,30.13,ENE,69,0.0,1.0,38,0.00,,,0.00,494,LWC V2.00 B727,2013-01-12 17:11:00,
2013-01-12 10:16:00,38.4,14.4,30.13,ENE,69,0.0,3.0,37,0.00,,,0.00,510,LWC V2.00 B727,2013-01-12 17:16:00,
2013-01-12 10:21:00,38.4,15.0,30.13,South,189,2.0,3.0,38,0.00,,,0.00,494,LWC V2.00 B727,2013-01-12 17:21:00,
2013-01-12 10:26:00,38.7,14.7,30.13,SW,224,2.0,4.0,37,0.00,,,0.00,439,LWC V2.00 B727,2013-01-12 17:26:00,
2013-01-12 10:31:00,39.2,13.2,30.13,SW,234,1.0,3.0,34,0.00,,,0.00,381,LWC V2.00 B727,2013-01-12 17:31:00,
2013-01-12 10:36:00,38.9,13.0,30.13,SW,222,3.0,5.0,34,0.00,,,0.00,403,LWC V2.00 B727,2013-01-12 17:36:00,
2013-01-12 10:41:00,38.9,13.6,30.12,SW,222,0.0,4.0,35,0.00,,,0.00,452,LWC V2.00 B727,2013-01-12 17:41:00,
2013-01-12 10:46:00,39.5,14.1,30.12,SW,218,2.0,4.0,35,0.00,,,0.00,594,LWC V2.00 B727,2013-01-12 17:46:00,
2013-01-12 10:51:00,39.5,14.8,30.12,SW,219,1.0,2.0,36,0.00,,,0.00,603,LWC V2.00 B727,2013-01-12 17:51:00,
2013-01-12 10:56:00,40.0,14.6,30.12,SW,219,0.0,4.0,35,0.00,,,0.00,561,LWC V2.00 B727,2013-01-12 17:56:00,
2013-01-12 11:01:00,40.0,13.9,30.12,SW,215,1.0,4.0,34,0.00,,,0.00,577,LWC V2.00 B727,2013-01-12 18:01:00,
2013-01-12 11:06:00,39.9,13.2,30.12,SW,216,4.0,8.0,33,0.00,,,0.00,316,LWC V2.00 B727,2013-01-12 18:06:00,
2013-01-12 11:11:00,39.6,12.9,30.11,SSW,206,2.0,6.0,33,0.00,,,0.00,568,LWC V2.00 B727,2013-01-12 18:11:00,
2013-01-12 11:16:00,40.0,13.9,30.11,WSW,237,2.0,6.0,34,0.00,,,0.00,424,LWC V2.00 B727,2013-01-12 18:16:00,
2013-01-12 11:21:00,39.9,13.2,30.11,SW,225,1.0,5.0,33,0.00,,,0.00,452,LWC V2.00 B727,2013-01-12 18:21:00,
2013-01-12 11:26:00,40.4,14.3,30.11,West,271,1.0,4.0,34,0.00,,,0.00,445,LWC V2.00 B727,2013-01-12 18:26:00,
2013-01-12 11:31:00,41.0,14.8,30.11,WSW,240,3.0,5.0,34,0.00,,,0.00,615,LWC V2.00 B727,2013-01-12 18:31:00,
2013-01-12 11:36:00,41.1,14.9,30.11,SW,214,4.0,7.0,34,0.00,,,0.00,621,LWC V2.00 B727,2013-01-12 18:36:00,
2013-01-12 11:41:00,41.1,15.6,30.11,SW,226,3.0,5.0,35,0.00,,,0.00,621,LWC V2.00 B727,2013-01-12 18:41:00,
2013-01-12 11:46:00,41.0,14.8,30.10,SW,217,2.0,5.0,34,0.00,,,0.00,628,LWC V2.00 B727,2013-01-12 18:46:00,
2013-01-12 11:51:00,41.0,14.8,30.10,West,263,3.0,5.0,34,0.00,,,0.00,642,LWC V2.00 B727,2013-01-12 18:51:00,
2013-01-12 11:56:00,41.5,14.6,30.10,WSW,251,4.0,8.0,33,0.00,,,0.00,682,LWC V2.00 B727,2013-01-12 18:56:00,
2013-01-12 12:01:00,41.5,14.6,30.10,SW,219,4.0,7.0,33,0.00,,,0.00,710,LWC V2.00 B727,2013-01-12 19:01:00,
2013-01-12 12:06:00,42.4,15.4,30.10,WSW,246,4.0,7.0,33,0.00,,,0.00,751,LWC V2.00 B727,2013-01-12 19:06:00,
2013-01-12 12:11:00,42.7,14.9,30.10,WSW,253,6.0,11.0,32,0.00,,,0.00,766,LWC V2.00 B727,2013-01-12 19:11:00,
2013-01-12 12:16:00,41.9,14.2,30.09,WNW,290,2.0,9.0,32,0.00,,,0.00,756,LWC V2.00 B727,2013-01-12 19:16:00,
2013-01-12 12:21:00,42.1,13.7,30.09,WSW,254,2.0,8.0,31,0.00,,,0.00,770,LWC V2.00 B727,2013-01-12 19:21:00,
2013-01-12 12:26:00,42.9,13.6,30.09,WSW,244,2.0,7.0,30,0.00,,,0.00,724,LWC V2.00 B727,2013-01-12 19:26:00,
2013-01-12 12:31:00,41.7,13.3,30.08,West,259,6.0,7.0,31,0.00,,,0.00,162,LWC V2.00 B727,2013-01-12 19:31:00,
2013-01-12 12:36:00,41.3,13.7,30.08,WSW,240,2.0,5.0,32,0.00,,,0.00,169,LWC V2.00 B727,2013-01-12 19:36:00,
2013-01-12 12:41:00,41.8,14.1,30.08,SW,234,1.0,5.0,32,0.00,,,0.00,682,LWC V2.00 B727,2013-01-12 19:41:00,
2013-01-12 12:46:00,42.3,14.6,30.08,WNW,289,4.0,6.0,32,0.00,,,0.00,710,LWC V2.00 B727,2013-01-12 19:46:00,
2013-01-12 12:51:00,43.0,13.7,30.08,WSW,254,3.0,7.0,30,0.00,,,0.00,759,LWC V2.00 B727,2013-01-12 19:51:00,
2013-01-12 12:56:00,43.3,13.2,30.08,WSW,240,6.0,8.0,29,0.00,,,0.00,758,LWC V2.00 B727,2013-01-12 19:56:00,
2013-01-12 13:01:00,43.4,14.1,30.08,WSW,241,3.0,7.0,30,0.00,,,0.00,751,LWC V2.00 B727,2013-01-12 20:01:00,
2013-01-12 13:06:00,42.8,12.8,30.08,West,265,4.0,12.0,29,0.00,,,0.00,721,LWC V2.00 B727,2013-01-12 20:06:00,
2013-01-12 13:11:00,43.3,12.4,30.08,West,272,3.0,8.0,28,0.00,,,0.00,700,LWC V2.00 B727,2013-01-12 20:11:00,
2013-01-12 13:16:00,43.1,13.0,30.07,WSW,237,6.0,9.0,29,0.00,,,0.00,694,LWC V2.00 B727,2013-01-12 20:16:00,
2013-01-12 13:21:00,42.9,12.9,30.07,WSW,238,5.0,10.0,29,0.00,,,0.00,682,LWC V2.00 B727,2013-01-12 20:21:00,
2013-01-12 13:26:00,43.2,11.5,30.07,SW,215,7.0,7.0,27,0.00,,,0.00,202,LWC V2.00 B727,2013-01-12 20:26:00,
2013-01-12 13:31:00,42.9,12.9,30.07,West,260,5.0,5.0,29,0.00,,,0.00,724,LWC V2.00 B727,2013-01-12 20:31:00,
2013-01-12 13:36:00,43.7,12.8,30.07,West,278,2.0,9.0,28,0.00,,,0.00,717,LWC V2.00 B727,2013-01-12 20:36:00,
2013-01-12 13:41:00,43.6,13.5,30.07,WSW,253,4.0,6.0,29,0.00,,,0.00,700,LWC V2.00 B727,2013-01-12 20:41:00,
2013-01-12 13:46:00,44.2,12.4,30.07,WSW,247,7.0,8.0,27,0.00,,,0.00,724,LWC V2.00 B727,2013-01-12 20:46:00,
2013-01-12 13:51:00,45.3,12.5,30.07,West,280,3.0,7.0,26,0.00,,,0.00,696,LWC V2.00 B727,2013-01-12 20:51:00,
2013-01-12 13:56:00,44.1,12.3,30.07,NNW,348,0.0,7.0,27,0.00,,,0.00,629,LWC V2.00 B727,2013-01-12 20:56:00,
2013-01-12 14:01:00,43.8,11.2,30.07,NNW,347,6.0,6.0,26,0.00,,,0.00,638,LWC V2.00 B727,2013-01-12 21:01:00,
2013-01-12 14:06:00,44.1,9.6,30.07,NW,312,2.0,8.0,24,0.00,,,0.00,619,LWC V2.00 B727,2013-01-12 21:06:00,
2013-01-12 14:11:00,44.4,9.9,30.07,WSW,250,5.0,7.0,24,0.00,,,0.00,605,LWC V2.00 B727,2013-01-12 21:11:00,
2013-01-12 14:16:00,44.0,10.5,30.08,NW,310,2.0,7.0,25,0.00,,,0.00,598,LWC V2.00 B727,2013-01-12 21:16:00,
2013-01-12 14:21:00,43.0,8.7,30.07,WNW,287,4.0,6.0,24,0.00,,,0.00,582,LWC V2.00 B727,2013-01-12 21:21:00,
2013-01-12 14:26:00,43.8,7.5,30.08,WNW,300,3.0,5.0,22,0.00,,,0.00,573,LWC V2.00 B727,2013-01-12 21:26:00,
2013-01-12 14:31:00,43.2,7.9,30.07,WNW,296,3.0,4.0,23,0.00,,,0.00,566,LWC V2.00 B727,2013-01-12 21:31:00,
2013-01-12 14:36:00,44.0,7.6,30.08,NW,318,3.0,6.0,22,0.00,,,0.00,543,LWC V2.00 B727,2013-01-12 21:36:00,
2013-01-12 14:41:00,43.4,8.1,30.07,WNW,297,6.0,7.0,23,0.00,,,0.00,522,LWC V2.00 B727,2013-01-12 21:41:00,
2013-01-12 14:46:00,43.7,6.4,30.07,WNW,282,2.0,8.0,21,0.00,,,0.00,497,LWC V2.00 B727,2013-01-12 21:46:00,
2013-01-12 14:51:00,43.9,6.5,30.08,WNW,302,3.0,5.0,21,0.00,,,0.00,482,LWC V2.00 B727,2013-01-12 21:51:00,
2013-01-12 14:56:00,43.6,6.3,30.08,WNW,292,3.0,4.0,21,0.00,,,0.00,464,LWC V2.00 B727,2013-01-12 21:56:00,
2013-01-12 15:01:00,43.7,5.3,30.08,NW,309,1.0,5.0,20,0.00,,,0.00,459,LWC V2.00 B727,2013-01-12 22:01:00,
2013-01-12 15:06:00,42.7,4.5,30.08,WNW,303,2.0,3.0,20,0.00,,,0.00,446,LWC V2.00 B727,2013-01-12 22:06:00,
2013-01-12 15:11:00,43.1,6.9,30.08,North,349,4.0,5.0,22,0.00,,,0.00,427,LWC V2.00 B727,2013-01-12 22:11:00,
2013-01-12 15:16:00,42.9,4.6,30.08,WNW,295,0.0,7.0,20,0.00,,,0.00,408,LWC V2.00 B727,2013-01-12 22:16:00,
2013-01-12 15:21:00,43.4,7.1,30.08,WSW,244,0.0,6.0,22,0.00,,,0.00,396,LWC V2.00 B727,2013-01-12 22:21:00,
2013-01-12 15:26:00,43.1,4.8,30.08,West,266,3.0,8.0,20,0.00,,,0.00,380,LWC V2.00 B727,2013-01-12 22:26:00,
2013-01-12 15:31:00,43.2,3.8,30.08,WNW,300,1.0,5.0,19,0.00,,,0.00,367,LWC V2.00 B727,2013-01-12 22:31:00,
2013-01-12 15:36:00,43.4,5.0,30.08,WNW,296,2.0,4.0,20,0.00,,,0.00,355,LWC V2.00 B727,2013-01-12 22:36:00,
2013-01-12 15:41:00,43.4,6.1,30.08,NW,305,1.0,6.0,21,0.00,,,0.00,343,LWC V2.00 B727,2013-01-12 22:41:00,
2013-01-12 15:46:00,42.7,4.5,30.08,WNW,296,4.0,8.0,20,0.00,,,0.00,325,LWC V2.00 B727,2013-01-12 22:46:00,
2013-01-12 15:51:00,43.1,5.9,30.08,West,281,2.0,6.0,21,0.00,,,0.00,309,LWC V2.00 B727,2013-01-12 22:51:00,
2013-01-12 15:56:00,43.2,4.9,30.08,SW,235,2.0,4.0,20,0.00,,,0.00,294,LWC V2.00 B727,2013-01-12 22:56:00,
2013-01-12 16:01:00,42.9,5.7,30.08,SSW,210,5.0,7.0,21,0.00,,,0.00,279,LWC V2.00 B727,2013-01-12 23:01:00,
2013-01-12 16:06:00,43.1,4.8,30.08,WSW,244,0.0,2.0,20,0.00,,,0.00,264,LWC V2.00 B727,2013-01-12 23:06:00,
2013-01-12 16:11:00,42.9,4.6,30.08,West,261,1.0,4.0,20,0.00,,,0.00,246,LWC V2.00 B727,2013-01-12 23:11:00,
2013-01-12 16:16:00,42.8,5.6,30.08,WNW,297,2.0,3.0,21,0.00,,,0.00,227,LWC V2.00 B727,2013-01-12 23:16:00,
2013-01-12 16:21:00,42.5,3.2,30.08,NNW,335,2.0,5.0,19,0.00,,,0.00,207,LWC V2.00 B727,2013-01-12 23:21:00,
2013-01-12 16:26:00,41.9,2.7,30.08,WSW,254,2.0,4.0,19,0.00,,,0.00,188,LWC V2.00 B727,2013-01-12 23:26:00,
2013-01-12 16:31:00,41.8,3.7,30.08,West,265,4.0,7.0,20,0.00,,,0.00,169,LWC V2.00 B727,2013-01-12 23:31:00,
2013-01-12 16:36:00,42.2,5.1,30.08,WSW,238,5.0,7.0,21,0.00,,,0.00,149,LWC V2.00 B727,2013-01-12 23:36:00,
2013-01-12 16:41:00,42.1,2.9,30.08,WSW,238,2.0,7.0,19,0.00,,,0.00,132,LWC V2.00 B727,2013-01-12 23:41:00,
2013-01-12 16:46:00,41.9,3.8,30.08,NW,311,2.0,5.0,20,0.00,,,0.00,113,LWC V2.00 B727,2013-01-12 23:46:00,
2013-01-12 16:51:00,41.4,4.4,30.08,West,281,2.0,2.0,21,0.00,,,0.00,95,LWC V2.00 B727,2013-01-12 23:51:00,
2013-01-12 16:56:00,41.5,3.5,30.08,WSW,243,2.0,4.0,20,0.00,,,0.00,77,LWC V2.00 B727,2013-01-12 23:56:00,
2013-01-12 17:01:00,41.3,4.3,30.08,WSW,242,1.0,6.0,21,0.00,,,0.00,62,LWC V2.00 B727,2013-01-13 00:01:00,
2013-01-12 17:06:00,41.0,4.1,30.09,West,267,0.0,3.0,21,0.00,,,0.00,47,LWC V2.00 B727,2013-01-13 00:06:00,
2013-01-12 17:11:00,40.5,3.7,30.09,NW,304,1.0,6.0,21,0.00,,,0.00,35,LWC V2.00 B727,2013-01-13 00:11:00,
2013-01-12 17:16:00,40.5,4.7,30.09,NW,322,1.0,5.0,22,0.00,,,0.00,25,LWC V2.00 B727,2013-01-13 00:16:00,
2013-01-12 17:21:00,40.1,3.3,30.09,NW,311,2.0,3.0,21,0.00,,,0.00,16,LWC V2.00 B727,2013-01-13 00:21:00,
2013-01-12 17:26:00,39.6,2.9,30.09,NW,304,0.0,4.0,21,0.00,,,0.00,12,LWC V2.00 B727,2013-01-13 00:26:00,
2013-01-12 17:31:00,39.1,3.5,30.09,NW,306,3.0,3.0,22,0.00,,,0.00,9,LWC V2.00 B727,2013-01-13 00:31:00,
2013-01-12 17:36:00,38.7,4.1,30.09,NW,306,2.0,3.0,23,0.00,,,0.00,7,LWC V2.00 B727,2013-01-13 00:36:00,
2013-01-12 17:41:00,38.4,4.8,30.09,NW,306,0.0,1.0,24,0.00,,,0.00,5,LWC V2.00 B727,2013-01-13 00:41:00,
2013-01-12 17:46:00,38.0,5.3,30.09,NW,306,0.0,3.0,25,0.00,,,0.00,0,LWC V2.00 B727,2013-01-13 00:46:00,
2013-01-12 17:51:00,37.6,5.9,30.09,NW,306,1.0,2.0,26,0.00,,,0.00,0,LWC V2.00 B727,2013-01-13 00:51:00,
2013-01-12 17:56:00,37.3,5.6,30.09,NW,306,0.0,3.0,26,0.00,,,0.00,0,LWC V2.00 B727,2013-01-13 00:56:00,
2013-01-12 18:01:00,36.9,6.9,30.10,NW,306,0.0,1.0,28,0.00,,,0.00,0,LWC V2.00 B727,2013-01-13 01:01:00,
2013-01-12 18:06:00,36.6,6.6,30.10,NW,306,0.0,1.0,28,0.00,,,0.00,0,LWC V2.00 B727,2013-01-13 01:06:00,
2013-01-12 18:11:00,36.1,6.2,30.10,NW,306,0.0,0.0,28,0.00,,,0.00,0,LWC V2.00 B727,2013-01-13 01:11:00,
2013-01-12 18:16:00,35.6,6.5,30.10,NW,306,0.0,0.0,29,0.00,,,0.00,0,LWC V2.00 B727,2013-01-13 01:16:00,
2013-01-12 18:21:00,35.3,7.0,30.10,NW,306,0.0,0.0,30,0.00,,,0.00,0,LWC V2.00 B727,2013-01-13 01:21:00,
2013-01-12 18:26:00,35.0,6.7,30.10,NW,306,0.0,0.0,30,0.00,,,0.00,0,LWC V2.00 B727,2013-01-13 01:26:00,
2013-01-12 18:31:00,34.5,7.0,30.10,NW,306,0.0,0.0,31,0.00,,,0.00,0,LWC V2.00 B727,2013-01-13 01:31:00,
2013-01-12 18:36:00,34.2,7.5,30.10,NW,306,0.0,0.0,32,0.00,,,0.00,0,LWC V2.00 B727,2013-01-13 01:36:00,
2013-01-12 18:41:00,34.0,7.3,30.10,NW,306,0.0,0.0,32,0.00,,,0.00,0,LWC V2.00 B727,2013-01-13 01:41:00,
2013-01-12 18:46:00,34.1,8.0,30.10,NW,306,0.0,1.0,33,0.00,,,0.00,0,LWC V2.00 B727,2013-01-13 01:46:00,
2013-01-12 18:51:00,33.6,8.3,30.11,NW,306,1.0,2.0,34,0.00,,,0.00,0,LWC V2.00 B727,2013-01-13 01:51:00,
2013-01-12 18:56:00,33.0,8.4,30.11,NW,306,2.0,3.0,35,0.00,,,0.00,0,LWC V2.00 B727,2013-01-13 01:56:00,
2013-01-12 19:01:00,32.8,8.8,30.11,NW,315,2.0,3.0,36,0.00,,,0.00,0,LWC V2.00 B727,2013-01-13 02:01:00,
2013-01-12 19:06:00,32.4,9.7,30.11,NE,39,1.0,3.0,38,0.00,,,0.00,0,LWC V2.00 B727,2013-01-13 02:06:00,
2013-01-12 19:11:00,32.0,9.9,30.11,NE,39,3.0,3.0,39,0.00,,,0.00,0,LWC V2.00 B727,2013-01-13 02:11:00,
2013-01-12 19:16:00,31.9,9.2,30.11,NE,40,2.0,3.0,38,0.00,,,0.00,0,LWC V2.00 B727,2013-01-13 02:16:00,
2013-01-12 19:21:00,32.0,9.3,30.11,NE,40,2.0,3.0,38,0.00,,,0.00,0,LWC V2.00 B727,2013-01-13 02:21:00,
2013-01-12 19:26:00,31.9,9.8,30.11,NE,40,3.0,3.0,39,0.00,,,0.00,0,LWC V2.00 B727,2013-01-13 02:26:00,
2013-01-12 19:31:00,31.7,9.6,30.12,NE,40,2.0,3.0,39,0.00,,,0.00,0,LWC V2.00 B727,2013-01-13 02:31:00,
2013-01-12 19:36:00,31.8,9.7,30.12,NE,55,3.0,4.0,39,0.00,,,0.00,0,LWC V2.00 B727,2013-01-13 02:36:00,
2013-01-12 19:41:00,31.9,9.8,30.12,NE,55,2.0,3.0,39,0.00,,,0.00,0,LWC V2.00 B727,2013-01-13 02:41:00,
2013-01-12 19:46:00,31.9,9.8,30.12,ENE,68,1.0,4.0,39,0.00,,,0.00,0,LWC V2.00 B727,2013-01-13 02:46:00,
2013-01-12 19:51:00,31.9,9.8,30.13,ENE,68,3.0,4.0,39,0.00,,,0.00,0,LWC V2.00 B727,2013-01-13 02:51:00,
2013-01-12 19:56:00,31.9,9.8,30.13,ENE,68,2.0,4.0,39,0.00,,,0.00,0,LWC V2.00 B727,2013-01-13 02:56:00,
2013-01-12 20:01:00,32.0,9.9,30.13,ENE,68,2.0,3.0,39,0.00,,,0.00,0,LWC V2.00 B727,2013-01-13 03:01:00,
2013-01-12 20:06:00,31.9,9.8,30.13,ENE,68,2.0,3.0,39,0.00,,,0.00,0,LWC V2.00 B727,2013-01-13 03:06:00,
2013-01-12 20:11:00,31.8,9.7,30.13,ENE,68,3.0,4.0,39,0.00,,,0.00,0,LWC V2.00 B727,2013-01-13 03:11:00,
2013-01-12 20:16:00,31.6,10.1,30.13,ENE,68,3.0,4.0,40,0.00,,,0.00,0,LWC V2.00 B727,2013-01-13 03:16:00,
2013-01-12 20:21:00,31.5,10.0,30.13,ENE,68,4.0,4.0,40,0.00,,,0.00,0,LWC V2.00 B727,2013-01-13 03:21:00,
2013-01-12 20:26:00,31.6,10.1,30.13,ENE,68,3.0,4.0,40,0.00,,,0.00,0,LWC V2.00 B727,2013-01-13 03:26:00,
2013-01-12 20:31:00,31.7,9.6,30.13,ENE,68,4.0,4.0,39,0.00,,,0.00,0,LWC V2.00 B727,2013-01-13 03:31:00,
2013-01-12 20:36:00,31.8,9.7,30.14,ENE,68,3.0,4.0,39,0.00,,,0.00,0,LWC V2.00 B727,2013-01-13 03:36:00,
2013-01-12 20:41:00,31.9,9.8,30.14,ENE,68,3.0,4.0,39,0.00,,,0.00,0,LWC V2.00 B727,2013-01-13 03:41:00,
2013-01-12 20:46:00,32.0,9.3,30.14,ENE,68,3.0,3.0,38,0.00,,,0.00,0,LWC V2.00 B727,2013-01-13 03:46:00,
2013-01-12 20:51:00,32.1,8.8,30.13,ENE,68,3.0,3.0,37,0.00,,,0.00,0,LWC V2.00 B727,2013-01-13 03:51:00,
2013-01-12 20:56:00,32.2,8.9,30.14,ENE,68,3.0,4.0,37,0.00,,,0.00,0,LWC V2.00 B727,2013-01-13 03:56:00,
2013-01-12 21:01:00,32.1,9.4,30.14,ENE,68,3.0,4.0,38,0.00,,,0.00,0,LWC V2.00 B727,2013-01-13 04:01:00,
2013-01-12 21:06:00,31.9,9.2,30.14,ENE,68,3.0,4.0,38,0.00,,,0.00,0,LWC V2.00 B727,2013-01-13 04:06:00,
2013-01-12 21:11:00,31.9,9.2,30.14,ENE,68,2.0,3.0,38,0.00,,,0.00,0,LWC V2.00 B727,2013-01-13 04:11:00,
2013-01-12 21:16:00,31.5,8.9,30.14,ENE,68,0.0,0.0,38,0.00,,,0.00,0,LWC V2.00 B727,2013-01-13 04:16:00,
2013-01-12 21:21:00,31.3,8.7,30.14,ENE,68,2.0,3.0,38,0.00,,,0.00,0,LWC V2.00 B727,2013-01-13 04:21:00,
2013-01-12 21:26:00,31.2,9.2,30.14,ENE,68,1.0,1.0,39,0.00,,,0.00,0,LWC V2.00 B727,2013-01-13 04:26:00,
2013-01-12 21:31:00,30.4,9.0,30.14,ENE,68,1.0,2.0,40,0.00,,,0.00,0,LWC V2.00 B727,2013-01-13 04:31:00,
2013-01-12 21:36:00,30.8,8.8,30.14,ENE,68,2.0,3.0,39,0.00,,,0.00,0,LWC V2.00 B727,2013-01-13 04:36:00,
2013-01-12 21:41:00,31.5,8.9,30.14,ENE,68,1.0,2.0,38,0.00,,,0.00,0,LWC V2.00 B727,2013-01-13 04:41:00,
2013-01-12 21:46:00,31.4,8.8,30.14,ENE,68,3.0,3.0,38,0.00,,,0.00,0,LWC V2.00 B727,2013-01-13 04:46:00,
2013-01-12 21:51:00,31.8,8.5,30.14,ENE,68,3.0,3.0,37,0.00,,,0.00,0,LWC V2.00 B727,2013-01-13 04:51:00,
2013-01-12 21:56:00,31.8,8.5,30.14,ENE,68,2.0,2.0,37,0.00,,,0.00,0,LWC V2.00 B727,2013-01-13 04:56:00,
2013-01-12 22:00:00,31.7,8.4,30.15,ENE,68,4.0,4.0,37,0.00,,,0.00,0,LWC V2.00 B727,2013-01-13 05:00:00,
2013-01-12 22:05:00,31.6,8.4,30.15,ENE,68,2.0,3.0,37,0.00,,,0.00,0,LWC V2.00 B727,2013-01-13 05:05:00,
2013-01-12 22:10:00,31.1,8.5,30.15,ENE,68,2.0,2.0,38,0.00,,,0.00,0,LWC V2.00 B727,2013-01-13 05:10:00,
2013-01-12 22:15:00,31.2,8.6,30.15,NE,55,2.0,3.0,38,0.00,,,0.00,0,LWC V2.00 B727,2013-01-13 05:15:00,
2013-01-12 22:20:00,31.6,8.4,30.15,NE,54,2.0,3.0,37,0.00,,,0.00,0,LWC V2.00 B727,2013-01-13 05:20:00,
2013-01-12 22:25:00,32.0,8.7,30.15,ENE,57,3.0,4.0,37,0.00,,,0.00,0,LWC V2.00 B727,2013-01-13 05:25:00,
2013-01-12 22:30:00,31.9,9.2,30.15,ENE,58,3.0,5.0,38,0.00,,,0.00,0,LWC V2.00 B727,2013-01-13 05:30:00,
2013-01-12 22:35:00,31.7,9.0,30.15,ENE,58,2.0,3.0,38,0.00,,,0.00,0,LWC V2.00 B727,2013-01-13 05:35:00,
2013-01-12 22:40:00,31.5,9.4,30.15,ENE,58,4.0,4.0,39,0.00,,,0.00,0,LWC V2.00 B727,2013-01-13 05:40:00,
2013-01-12 22:45:00,31.0,9.5,30.15,ENE,58,1.0,3.0,40,0.00,,,0.00,0,LWC V2.00 B727,2013-01-13 05:45:00,
2013-01-12 22:50:00,30.7,9.8,30.15,ENE,58,3.0,4.0,41,0.00,,,0.00,0,LWC V2.00 B727,2013-01-13 05:50:00,
2013-01-12 22:55:00,30.6,10.3,30.15,ENE,59,3.0,4.0,42,0.00,,,0.00,0,LWC V2.00 B727,2013-01-13 05:55:00,
2013-01-12 23:00:00,30.6,9.7,30.15,ENE,59,3.0,4.0,41,0.00,,,0.00,0,LWC V2.00 B727,2013-01-13 06:00:00,
2013-01-12 23:05:00,30.6,9.7,30.15,ENE,59,2.0,3.0,41,0.00,,,0.00,0,LWC V2.00 B727,2013-01-13 06:05:00,
2013-01-12 23:10:00,30.6,9.7,30.15,ENE,59,0.0,3.0,41,0.00,,,0.00,0,LWC V2.00 B727,2013-01-13 06:10:00,
2013-01-12 23:15:00,30.2,9.9,30.15,ENE,59,1.0,2.0,42,0.00,,,0.00,0,LWC V2.00 B727,2013-01-13 06:15:00,
2013-01-12 23:20:00,30.3,10.0,30.16,ENE,59,1.0,2.0,42,0.00,,,0.00,0,LWC V2.00 B727,2013-01-13 06:20:00,
2013-01-12 23:25:00,30.1,10.3,30.16,ENE,59,0.0,0.0,43,0.00,,,0.00,0,LWC V2.00 B727,2013-01-13 06:25:00,
2013-01-12 23:30:00,29.6,9.9,30.16,ENE,59,0.0,0.0,43,0.00,,,0.00,0,LWC V2.00 B727,2013-01-13 06:30:00,
2013-01-12 23:35:00,29.3,9.6,30.16,ENE,59,0.0,0.0,43,0.00,,,0.00,0,LWC V2.00 B727,2013-01-13 06:35:00,
2013-01-12 23:40:00,29.0,9.8,30.16,ENE,59,0.0,0.0,44,0.00,,,0.00,0,LWC V2.00 B727,2013-01-13 06:40:00,
2013-01-12 23:45:00,29.2,10.0,30.16,ENE,59,1.0,2.0,44,0.00,,,0.00,0,LWC V2.00 B727,2013-01-13 06:45:00,
2013-01-12 23:50:00,29.7,10.0,30.16,ENE,59,2.0,2.0,43,0.00,,,0.00,0,LWC V2.00 B727,2013-01-13 06:50:00,
2013-01-12 23:55:00,29.9,9.6,30.16,ENE,59,1.0,3.0,42,0.00,,,0.00,0,LWC V2.00 B727,2013-01-13 06:55:00,